User: anonymous   Login
Location: Arthez
(43.0833°N, 0.2500°W)
Time: 15:56:59
(UTC+00:00)
Language:

Cosmos 724 - Orbit

View from above orbital plane
View from above orbital plane
View from above satellite
View from above satellite

Ground track
Ground track

The orbit data is extracted from the following two-line orbital elements,

1 07727U 75025A   22022.93866488 -.00000070  00000-0  11790-4 0  9992
2 07727  65.5893 269.5156 0050557 150.7228 209.6695 13.98937012390992
Epoch (UTC): 22 January 2022 22:31:40
Eccentricity: 0.0050557
inclination: 65.5893°
perigee height: 860 km
apogee height: 934 km
right ascension of ascending node: 269.5156°
argument of perigee: 150.7228°
revolutions per day: 13.98937012
mean anomaly at epoch: 209.6695°
orbit number at epoch: 39099

The dashed part of the orbit path shows where the satellite is in the earth's shadow,  

DLR